Weather History for KOMK - March, 2013

Change the Weather History Date:

Saturday, March 16, 2013

  Actual Average Record
Temperature  
Mean Temperature 46 °F 42 °F  
Max Temperature 58 °F 53 °F 69 °F (1972)
Min Temperature 33 °F 31 °F 15 °F (1971)
Degree Days  
Heating Degree Days 19 23  
Month to date heating degree days 349 422  
Since 1 July heating degree days 4990 5283  
Cooling Degree Days 0 0  
Month to date cooling degree days 0 0  
Year to date cooling degree days 0 0  
Moisture  
Dew Point 27 °F    
Average Humidity 55    
Maximum Humidity 82    
Minimum Humidity 27    
Precipitation  
Precipitation T in 0.03 in 0.41 in (1933)
Month to date precipitation 0.50 0.61  
Year to date precipitation 1.29 3.60  
Sea Level Pressure  
Sea Level Pressure 29.83 in    
Wind  
Wind Speed 7 mph (SW)    
Max Wind Speed 21 mph    
Max Gust Speed 33 mph    
Visibility 10 miles    
Events      
T = Trace of Precipitation, MM = Missing Value Source: NWS Daily Summary

Daily Weather History Graph

Daily Weather History Graph

Search for Another Location

Airport or City:

Trip Planner

Search our weather history database for the weather conditions in past years. The results will help you decide how hot, cold, wet, or windy it might be!

Date:

Astronomy

Mar. 16, 2013 Rise Set
Actual Time 7:08 AM PDT 7:05 PM PDT
Civil Twilight 6:37 AM PDT 7:36 PM PDT
Nautical Twilight 6:00 AM PDT 8:13 PM PDT
Astronomical Twilight 5:23 AM PDT 8:50 PM PDT
Moon 9:17 AM PDT (3/16) No Moon Set
Length of Visible Light 12h 59m
Length of Day
11h 56m
Waxing Crescent, 24% of the Moon is Illuminated
Mar 16
Waxing Crescent
Mar 19
First Quarter
Mar 27
Full
Apr 2
Last Quarter
Apr 10
New

Hourly Weather History & Observations

Time (PDT) Temp. Windchill Dew Point Humidity Pressure Visibility Wind Dir Wind Speed Gust Speed Precip Events Conditions
12:53 AM 43.0 °F 39.5 °F 30.0 °F 60% 30.02 in 10.0 mi West 5.8 mph - N/A   Clear
1:53 AM 39.0 °F - 30.0 °F 70% 30.01 in 10.0 mi Calm Calm - N/A   Clear
2:53 AM 37.9 °F 35.5 °F 28.9 °F 70% 29.99 in 10.0 mi SSW 3.5 mph - N/A   Clear
3:53 AM 37.0 °F 33.3 °F 28.0 °F 70% 29.99 in 10.0 mi West 4.6 mph - N/A   Clear
4:53 AM 35.1 °F 30.1 °F 28.0 °F 76% 29.98 in 10.0 mi West 5.8 mph - N/A   Clear
5:53 AM 36.0 °F 29.0 °F 28.0 °F 73% 29.97 in 10.0 mi WNW 9.2 mph - N/A   Mostly Cloudy
6:53 AM 34.0 °F - 28.0 °F 79% 29.95 in 10.0 mi Calm Calm - N/A   Mostly Cloudy
7:53 AM 34.0 °F - 28.9 °F 82% 29.95 in 10.0 mi Calm Calm - N/A   Clear
8:53 AM 37.0 °F - 30.9 °F 79% 29.95 in 10.0 mi Calm Calm - N/A   Clear
9:53 AM 41.0 °F - 30.9 °F 67% 29.93 in 10.0 mi Calm Calm - N/A   Clear
10:53 AM 42.1 °F 40.2 °F 33.1 °F 70% 29.91 in 10.0 mi SE 3.5 mph - N/A   Clear
11:53 AM 44.1 °F 41.5 °F 34.0 °F 68% 29.89 in 10.0 mi SSW 4.6 mph - N/A   Partly Cloudy
12:53 PM 46.0 °F 43.9 °F 33.1 °F 61% 29.85 in 10.0 mi SSE 4.6 mph - N/A   Clear
1:53 PM 53.1 °F - 35.1 °F 50% 29.80 in 10.0 mi South 6.9 mph - N/A   Mostly Cloudy
2:53 PM 55.0 °F - 32.0 °F 42% 29.75 in 10.0 mi SSE 8.1 mph - N/A   Mostly Cloudy
3:53 PM 57.0 °F - 28.0 °F 33% 29.71 in 10.0 mi South 13.8 mph 23.0 mph N/A   Scattered Clouds
4:53 PM 55.0 °F - 25.0 °F 31% 29.70 in 10.0 mi SSW 18.4 mph 25.3 mph N/A   Overcast
5:53 PM 54.0 °F - 27.0 °F 35% 29.67 in 10.0 mi South 17.3 mph 25.3 mph 0.00 in   Clear
6:53 PM 51.1 °F - 26.1 °F 38% 29.66 in 10.0 mi SSW 16.1 mph 24.2 mph N/A   Clear
7:53 PM 46.9 °F - 24.1 °F 41% 29.65 in 10.0 mi SSW 11.5 mph - N/A   Partly Cloudy
8:53 PM 44.1 °F 39.0 °F 24.1 °F 45% 29.67 in 10.0 mi South 9.2 mph - N/A   Partly Cloudy
9:21 PM 44.6 °F 38.4 °F 24.8 °F 46% 29.65 in 10.0 mi West 12.7 mph - N/A   Mostly Cloudy
9:53 PM 45.0 °F - 21.9 °F 40% 29.69 in 10.0 mi Calm Calm - N/A   Scattered Clouds
10:53 PM 43.0 °F 37.7 °F 14.0 °F 31% 29.68 in 10.0 mi West 9.2 mph - N/A   Clear
11:53 PM 43.0 °F 37.2 °F 10.9 °F 27% 29.69 in 10.0 mi West 10.4 mph 25.3 mph N/A   Clear